Suffolk, VA

5:36 PM EST on February 07, 2016 (GMT -0500)
Suffolk Municipal

Weather History for KSFQ - February, 2014

Change the Weather History Date:

Friday, February 21, 2014

  Actual Average Record
Temperature  
Mean Temperature 60 °F -  
Max Temperature 76 °F 56 °F 76 °F (2014)
Min Temperature 43 °F 32 °F 5 °F (2015)
Degree Days  
Heating Degree Days 6    
Growing Degree Days 10 (Base 50)    
Moisture  
Dew Point 56 °F    
Average Humidity 81    
Maximum Humidity 91    
Minimum Humidity 58    
Precipitation  
Precipitation 0.00 in - - ()
Sea Level Pressure  
Sea Level Pressure 29.92 in    
Wind  
Wind Speed 12 mph (SSW)    
Max Wind Speed 31 mph    
Max Gust Speed 39 mph    
Visibility 10 miles    
Events Rain , Thunderstorm    
Averages and records for this station are not official NWS values.
T = Trace of Precipitation, MM = Missing Value Source: NWS Daily Summary

Daily Weather History Graph

Daily Weather History Graph

Search for Another Location

Airport or City:

Trip Planner

Search our weather history database for the weather conditions in past years. The results will help you decide how hot, cold, wet, or windy it might be!

Date:

Astronomy

Feb. 21, 2014 Rise Set
Actual Time 6:47 AM EST 5:53 PM EST
Civil Twilight 6:21 AM EST 6:19 PM EST
Nautical Twilight 5:51 AM EST 6:49 PM EST
Astronomical Twilight 5:21 AM EST 7:19 PM EST
Moon No Moon Rise 10:20 AM EST (2/21)
Length of Visible Light 11h 58m
Length of Day
11h 05m
Waning Gibbous, 61% of the Moon is Illuminated
Feb 21
Waning Gibbous
Feb 22
Last Quarter
Mar 1
New
Mar 8
First Quarter
Mar 16
Full

Hourly Weather History & Observations

Time (EST) Temp. Windchill Dew Point Humidity Pressure Visibility Wind Dir Wind Speed Gust Speed Precip Events Conditions
12:15 AM 63.7 °F - 60.8 °F 90% 30.01 in 10.0 mi South 10.4 mph - N/A   Mostly Cloudy
12:35 AM 64.0 °F - 60.8 °F 89% 30.01 in 10.0 mi SSW 11.5 mph 17.3 mph N/A   Overcast
12:55 AM 64.4 °F - 61.0 °F 89% 30.00 in 10.0 mi South 15.0 mph - N/A   Overcast
1:15 AM 64.9 °F - 61.0 °F 87% 29.99 in 10.0 mi South 12.7 mph 17.3 mph N/A   Overcast
1:35 AM 65.3 °F - 61.0 °F 86% 29.98 in 10.0 mi South 13.8 mph 21.9 mph N/A   Overcast
1:55 AM 65.3 °F - 61.0 °F 86% 29.98 in 10.0 mi South 11.5 mph 20.7 mph N/A   Overcast
2:15 AM 64.9 °F - 60.8 °F 86% 29.97 in 10.0 mi South 11.5 mph 19.6 mph N/A   Overcast
2:35 AM 64.8 °F - 60.8 °F 87% 29.97 in 10.0 mi South 12.7 mph 17.3 mph N/A   Overcast
2:55 AM 64.4 °F - 60.3 °F 86% 29.96 in 10.0 mi SSW 11.5 mph 18.4 mph N/A   Overcast
3:15 AM 64.9 °F - 60.3 °F 85% 29.97 in 10.0 mi SSW 16.1 mph 19.6 mph N/A   Overcast
3:35 AM 65.3 °F - 60.4 °F 84% 29.97 in 10.0 mi SSW 13.8 mph 21.9 mph N/A   Overcast
3:55 AM 65.5 °F - 60.6 °F 84% 29.98 in 10.0 mi SW 18.4 mph 21.9 mph N/A   Overcast
4:15 AM 65.7 °F - 60.6 °F 84% 29.97 in 10.0 mi SSW 11.5 mph 20.7 mph N/A   Overcast
4:35 AM 64.9 °F - 60.3 °F 85% 29.97 in 10.0 mi SSW 12.7 mph 20.7 mph N/A   Overcast
4:55 AM 64.9 °F - 60.3 °F 85% 29.97 in 10.0 mi SSW 13.8 mph 21.9 mph N/A   Overcast
5:15 AM 64.6 °F - 59.9 °F 85% 29.97 in 10.0 mi South 13.8 mph 18.4 mph N/A   Overcast
5:35 AM 63.9 °F - 59.9 °F 87% 29.96 in 10.0 mi South 10.4 mph - N/A   Overcast
5:55 AM 63.0 °F - 59.5 °F 89% 29.96 in 10.0 mi South 8.1 mph - N/A   Overcast
6:15 AM 62.2 °F - 59.2 °F 90% 29.96 in 10.0 mi South 11.5 mph - N/A   Overcast
6:35 AM 61.9 °F - 59.0 °F 90% 29.94 in 10.0 mi South 9.2 mph - N/A   Scattered Clouds
6:55 AM 61.7 °F - 59.0 °F 91% 29.94 in 10.0 mi South 6.9 mph - N/A   Scattered Clouds
7:15 AM 62.1 °F - 59.0 °F 90% 29.94 in 10.0 mi South 12.7 mph 16.1 mph N/A   Scattered Clouds
7:35 AM 62.6 °F - 59.2 °F 89% 29.94 in 10.0 mi South 12.7 mph 16.1 mph N/A   Clear
7:55 AM 63.1 °F - 59.2 °F 87% 29.93 in 10.0 mi South 11.5 mph - N/A   Clear
8:15 AM 63.7 °F - 59.4 °F 86% 29.93 in 10.0 mi South 11.5 mph 17.3 mph N/A   Clear
8:35 AM 64.4 °F - 59.9 °F 85% 29.93 in 10.0 mi South 15.0 mph - N/A   Mostly Cloudy
8:55 AM 65.3 °F - 60.1 °F 83% 29.93 in 10.0 mi South 15.0 mph 20.7 mph N/A   Mostly Cloudy
9:15 AM 66.4 °F - 60.6 °F 82% 29.93 in 10.0 mi South 16.1 mph 20.7 mph N/A   Mostly Cloudy
9:35 AM 66.9 °F - 60.8 °F 81% 29.93 in 10.0 mi South 13.8 mph 21.9 mph N/A   Overcast
9:55 AM 67.6 °F - 61.0 °F 79% 29.93 in 10.0 mi South 15.0 mph 19.6 mph N/A   Overcast
10:15 AM 68.5 °F - 61.2 °F 77% 29.92 in 10.0 mi South 17.3 mph 20.7 mph N/A   Overcast
10:35 AM 69.4 °F - 61.5 °F 76% 29.90 in 10.0 mi South 20.7 mph 24.2 mph N/A   Overcast
10:55 AM 70.5 °F - 61.7 °F 74% 29.88 in 10.0 mi South 19.6 mph 26.5 mph N/A   Overcast
11:15 AM 71.2 °F - 61.5 °F 71% 29.87 in 10.0 mi South 19.6 mph 27.6 mph N/A   Overcast
11:35 AM 72.1 °F - 61.5 °F 69% 29.85 in 10.0 mi South 18.4 mph 25.3 mph N/A   Overcast
11:55 AM 73.4 °F - 61.3 °F 66% 29.83 in 10.0 mi South 17.3 mph 25.3 mph N/A   Overcast
12:15 PM 74.8 °F - 61.0 °F 62% 29.82 in 10.0 mi SSW 21.9 mph 31.1 mph N/A   Mostly Cloudy
12:35 PM 74.8 °F - 60.8 °F 62% 29.82 in 10.0 mi SSW 23.0 mph 31.1 mph N/A   Overcast
12:55 PM 76.3 °F - 61.0 °F 59% 29.79 in 10.0 mi South 19.6 mph 32.2 mph N/A   Mostly Cloudy
1:15 PM 76.1 °F - 60.8 °F 59% 29.78 in 10.0 mi SSW 21.9 mph 31.1 mph N/A   Mostly Cloudy
1:35 PM 74.5 °F - 59.0 °F 58% 29.80 in 10.0 mi West 31.1 mph 39.1 mph N/A Thunderstorm Overcast
1:55 PM 65.7 °F - 54.9 °F 68% 29.83 in 10.0 mi WSW 19.6 mph 34.5 mph N/A Rain , Thunderstorm Light Thunderstorms and Rain
2:15 PM 62.2 °F - 57.2 °F 84% 29.83 in 5.0 mi WSW 24.2 mph 32.2 mph N/A Rain , Thunderstorm Heavy Thunderstorms and Rain
2:35 PM 61.0 °F - 57.7 °F 89% 29.82 in 5.0 mi SW 12.7 mph 28.8 mph N/A Rain , Thunderstorm Heavy Thunderstorms and Rain
2:55 PM 61.2 °F - 58.1 °F 90% 29.81 in 10.0 mi SW 12.7 mph 19.6 mph N/A Rain , Thunderstorm Light Thunderstorms and Rain
3:15 PM 60.8 °F - 58.3 °F 91% 29.82 in 5.0 mi SW 16.1 mph 21.9 mph N/A Rain , Thunderstorm Rain
3:35 PM 61.2 °F - 58.6 °F 91% 29.81 in 5.0 mi SW 15.0 mph - N/A Rain Light Rain
3:55 PM 61.9 °F - 58.3 °F 88% 29.81 in 10.0 mi SW 13.8 mph 18.4 mph N/A   Mostly Cloudy
4:15 PM 62.2 °F - 58.3 °F 87% 29.83 in 10.0 mi SW 12.7 mph 17.3 mph N/A   Overcast
4:35 PM 63.0 °F - 57.6 °F 82% 29.83 in 10.0 mi SW 13.8 mph 21.9 mph N/A   Mostly Cloudy
4:55 PM 63.0 °F - 57.6 °F 82% 29.83 in 10.0 mi WSW 11.5 mph 17.3 mph N/A   Mostly Cloudy
5:15 PM 63.0 °F - 57.7 °F 83% 29.84 in 10.0 mi SW 9.2 mph - N/A   Overcast
5:35 PM 62.8 °F - 58.1 °F 85% 29.86 in 10.0 mi SSW 6.9 mph - N/A   Overcast
5:55 PM 62.6 °F - 58.1 °F 85% 29.87 in 10.0 mi SSW 5.8 mph - N/A   Overcast
6:15 PM 60.4 °F - 53.2 °F 77% 29.89 in 10.0 mi WNW 11.5 mph 18.4 mph N/A   Overcast
6:35 PM 59.0 °F - 52.2 °F 78% 29.90 in 10.0 mi West 6.9 mph - N/A   Overcast
6:55 PM 58.5 °F - 52.2 °F 80% 29.91 in 10.0 mi West 6.9 mph - N/A   Overcast
7:15 PM 58.1 °F - 52.2 °F 81% 29.91 in 10.0 mi West 5.8 mph - N/A Rain Light Rain
7:35 PM 57.6 °F - 50.2 °F 76% 29.91 in 10.0 mi WSW 6.9 mph - N/A   Overcast
7:55 PM 57.2 °F - 48.7 °F 73% 29.92 in 10.0 mi WSW 6.9 mph - N/A   Overcast
8:15 PM 56.7 °F - 47.3 °F 71% 29.93 in 10.0 mi West 8.1 mph - N/A   Overcast
8:35 PM 55.4 °F - 46.8 °F 73% 29.95 in 10.0 mi WSW 6.9 mph - N/A   Overcast
8:55 PM 54.1 °F - 44.1 °F 69% 29.96 in 10.0 mi West 5.8 mph - N/A   Scattered Clouds
9:15 PM 52.7 °F - 43.7 °F 71% 29.96 in 10.0 mi Calm Calm - N/A   Clear
9:35 PM 51.3 °F - 43.3 °F 74% 29.97 in 10.0 mi Calm Calm - N/A   Clear
9:55 PM 47.8 °F - 44.4 °F 88% 29.98 in 10.0 mi Calm Calm - N/A   Clear
10:15 PM 46.9 °F - 43.9 °F 89% 29.98 in 10.0 mi Calm Calm - N/A   Clear
10:35 PM 47.1 °F - 42.1 °F 83% 29.98 in 10.0 mi West 4.6 mph - N/A   Clear
10:55 PM 43.7 °F - 41.4 °F 91% 29.98 in 10.0 mi Calm Calm - N/A   Clear
11:15 PM 44.1 °F 41.5 °F 41.7 °F 91% 29.98 in 10.0 mi West 4.6 mph - N/A   Clear
11:35 PM 44.6 °F 43.1 °F 40.5 °F 85% 29.98 in 10.0 mi WNW 3.5 mph - N/A   Clear
11:55 PM 46.2 °F 42.7 °F 38.7 °F 75% 29.98 in 10.0 mi WNW 6.9 mph - N/A   Clear